Showing default

TELKOM 1, 25880

Orbit data source: Space-Track

TELKOM 1, 25880 is a payload satellite owned by Telkom (ID) in GEO that was launched on Thu, 12 Aug 1999 UTC via an ARIANE 42P launch vehicle from the French Guiana (FRGUI). Payload-class satellites include a variety of spacecraft equipped with specific instruments for various scientific and technological missions. These include communications satellites like Starlink; space stations such as the ISS; scientific satellites like the Hubble; Earth observation satellites from companies like Planet Labs, Umbra, and HawkEye 360; GPS; miniature CubeSats for education and research; and military/defense satellites.

Not visible in the next 10 days
Identifier
25880, 1999-042A
Orbit
GEO
Last TLE update
20 hours ago
Origin
Manufacturer
LMCSS
Mission
Non-operational Commercial Communications
Bus & Motor
A2100, LEROS 1C
Mass
2,763 kg wet, ~1,500 kg dry
Launch date (UTC)
1999-08-12 (26 years ago)
Launch vehicle
ARIANE 42P
Launch site
French Guiana (FRGUI)
Object type
Payload
Rocket body
Debris
Shape & HBR
Box + 1 Pan, 22.5 m
Radar Cross Section
38.975 m², Large (>1 m²)

Expand to show TLE details & history

TLE from 20 hours ago
0 TELKOM 1
1 25880U 99042A   25187.15173513 -.00000133  00000-0  00000-0 0  9994
2 25880   6.8216  70.3075 0014006 250.1786  98.3594  1.00300973 94914
Epoch: 2025-07-06T03:38Z
TLE epoch observation values (Epoch: 2025-07-06T03:38:29.915Z)
Latitude
-1.32486°
Longitude
80.08188°
Altitude
35,787.059 km
Speed
3.074 km/s
True Right ascension
03h 56m 20s
True Declination
-1° 19' 25"
Sunlit
Object was in daylight at epoch
Visualization orbit readout
Latitude
-6.65891°
Longitude
14.71377°
Altitude
35,729.737 km
Speed
3.079 km/s
Apparent Right ascension
23h 32m 40s
Apparent Declination
-10° 50' 48"
Sunlit
Object is in daylight
Visualization observer readout
Local Sidereal Time
11:13:56
Azimuth
350.587° N
Elevation
-60.635°
Doppler factor
1
Orbital elements
Apogee altitude
35,838.509 km
Perigee altitude
35,720.417 km
Semi-major axis
42,157.6 km
Eccentricity
0.0014
Inclination
6.8216°
RAAN
70.3075°
Arg. of periapsis
250.1786°
True anomaly
Unknown
Mean anomaly
98.3594°
Eccentric anomaly
Unknown
Mean motion
0.25074 °/min
Orbital period
1,435.73 mins
BSTAR
0
Loading historical data...
25880 neighbors
Loading maneuver chart data...
Loading SW <> Apogee altitude chart data...
Loading historical data...
Loading historical data...
Loading historical data...
Loading historical data...
Loading historical data...
Loading historical data...
Loading historical data...
Other satellites on launch #42 in the year 1999 (1999-08-12 UTC)

TELKOM 1 Visibility

Observer location: undefined°, undefined°

TELKOM 1 is likely not visible in the next few days
Span
Click to sort rows by Start time (UTC) header in descending order
Start Az.
Max El. time (UTC)
Max El. Az.
Max El.
End time (UTC)
End Az.
|